User: anonymous   Login
Location: Invercargill
(46.4000°S, 168.3500°E)
Time: 11:09:53
(UTC+12:00)
Language:

Explorer 11/Cluster Stage 4 - Orbit

View from above orbital plane
View from above orbital plane
View from above satellite
View from above satellite

Ground track
Ground track

The orbit data is extracted from the following two-line orbital elements,

1   107U 61013A   20217.48484720 +.00000384 +00000-0 +30023-4 0  9995
2   107 028.7877 270.1842 0546623 178.2745 181.9848 14.08976812973007
Epoch (UTC): 04 August 2020 11:38:10
Eccentricity: 0.0546623
inclination: 28.7877°
perigee height: 467 km
apogee height: 1258 km
right ascension of ascending node: 270.1842°
argument of perigee: 178.2745°
revolutions per day: 14.08976812
mean anomaly at epoch: 181.9848°
orbit number at epoch: 97300

The dashed part of the orbit path shows where the satellite is in the earth's shadow,  

DLR